[[{"header":{"parameterUnit":"m.s-1","parameterCategory":1,"la1":30.2991,"la2":30.254,"lo1":-89.0895,"lo2":-89.0444,"dy":0.0017,"dx":0.0017,"nx":28,"ny":28,"refTime":"2025-01-19T09:00:00:Z","depth":0,"parameterNumber":2,"parameterNumberName":"U-component_of_WINDS"},"data":[0,0,0,0,0,0,0,0,0,0,0,0,0,0,0,0,0,0,0,0,0,0,0,0,0,0,0,0,0,0,0,0,0,0,0,0,0,0,0,0,0,0,0,0,0,0,0,0,0,0,0,0,0,0,0,0,0,0,-5.6189,-5.6189,0,-5.6171,-5.6171,-5.6171,-5.5971,-5.5966,-5.5961,-5.5956,-5.5943,-5.5947,-5.5951,0,0,0,0,0,0,0,0,0,0,0,0,0,-5.6054,-5.6057,-5.6189,-5.6189,-5.6188,-5.6171,-5.6171,-5.6171,-5.5972,-5.5965,-5.5959,-5.5954,-5.5941,-5.5946,-5.5952,0,0,0,0,0,0,0,0,0,0,0,0,0,-5.6082,-5.6058,-5.6189,-5.6087,-5.6077,-5.6171,-5.6171,-5.6171,-5.5973,-5.5965,-5.5958,-5.5951,-5.594,-5.5946,-5.5952,-5.6144,0,0,-5.5972,-5.5975,0,0,0,0,0,0,0,0,-5.6081,-5.6087,-5.6102,-5.6094,-5.6084,-5.6065,-5.6118,-5.6162,-5.5975,-5.6013,-5.5956,-5.5947,-5.599,-5.5992,-5.6005,-5.6143,-5.6143,-5.5973,-5.5977,-5.598,-5.5982,0,0,0,0,0,0,0,-5.6079,-5.6087,-5.6182,-5.6103,-5.6091,-5.6043,-5.6039,-5.6126,-5.6044,-5.6009,-5.5994,-5.5995,-5.5984,-5.6,-5.6004,-5.6143,-5.5973,-5.5979,-5.5983,-5.5985,-5.6436,-5.6443,0,0,0,0,0,0,-5.6091,-5.6087,-5.6182,-5.6181,-5.6063,-5.6052,-5.6047,-5.6079,-5.6043,-5.603,-5.6001,-5.5985,-5.5992,-5.5996,-5.6002,-5.6223,-5.598,-5.5986,-5.599,-5.6428,-5.6437,-5.6446,0,0,0,0,0,0,-5.6088,-5.6101,-5.6183,-5.613,-5.6137,-5.6062,-5.61,-5.6083,-5.6098,-5.6037,-5.6022,-5.6032,-5.5986,-5.5993,-5.611,-5.622,-5.5989,-5.5995,-5.6418,-5.6431,-5.6442,-5.6668,0,0,0,0,0,0,-5.6085,-5.6101,-5.6173,-5.6133,-5.614,-5.6291,-5.6106,-5.6088,-5.6109,-5.6089,-5.6062,-5.605,-5.5981,-5.6101,-5.6116,-5.6225,-5.6,-5.6408,-5.6424,-5.6438,-5.665,-5.6686,-5.6717,0,0,0,0,0,-5.6081,-5.6239,-5.6177,-5.619,-5.6228,-5.6297,-5.6301,-5.6217,-5.6119,-5.6191,-5.6151,-5.6051,-5.6206,-5.6115,-5.613,-5.6242,-5.6401,-5.6419,-5.6437,-5.6635,-5.6679,-5.6716,0,0,0,0,0,0,-5.6295,-5.6231,-5.6163,-5.6312,-5.6311,-5.6263,-5.6351,-5.6266,-5.6295,-5.6275,-5.617,-5.6166,-5.6298,-5.6282,-5.6182,-5.6425,-5.6286,-5.6308,-5.6431,-5.6472,-5.6505,-5.6506,-5.6005,0,0,0,0,0,-5.636,-5.642,-5.6361,-5.6498,-5.6501,-5.6427,-5.6454,-5.6389,-5.6384,-5.6384,-5.6352,-5.6354,-5.6401,-5.6436,-5.6477,-5.6646,-5.6638,-5.6731,-5.6765,-5.6792,-5.6813,-5.69,-5.6941,-5.6506,-5.6506,-5.6505,0,0,-5.6494,-5.6466,-5.6511,-5.6541,-5.6532,-5.6598,-5.6428,-5.6505,-5.6553,-5.6396,-5.6503,-5.6481,-5.6475,-5.6618,-5.668,-5.6609,-5.6931,-5.6815,-5.6838,-5.6843,-5.6923,-5.6964,-5.7001,-5.6518,-5.6516,-5.6514,0,0,-5.6771,-5.6756,-5.6868,-5.6863,-5.6851,-5.68,-5.6828,-5.6792,-5.6771,-5.6876,-5.6759,-5.6816,-5.6902,-5.6902,-5.6913,-5.719,-5.7099,-5.7206,-5.738,-5.7467,-5.7501,-5.7531,-5.7629,-5.7665,-5.7227,-5.7227,-5.7228,0,-5.6939,-5.7032,-5.6937,-5.7021,-5.7037,-5.6896,-5.7008,-5.7009,-5.7013,-5.7028,-5.6948,-5.7051,-5.7038,-5.7179,-5.7246,-5.726,-5.7288,-5.7209,-5.7504,-5.7533,-5.7559,-5.7651,-5.7688,-5.724,-5.7239,-5.7237,-5.7236,0,-5.7239,-5.7305,-5.7397,-5.7402,-5.7429,-5.7528,-5.7448,-5.7487,-5.7419,-5.7377,-5.7487,-5.7465,-5.7499,-5.7527,-5.7464,-5.766,-5.7616,-5.7522,-5.7379,-5.7615,-5.77,-5.7735,-5.7259,-5.7254,-5.725,-5.7247,0,0,-5.7651,-5.7601,-5.7636,-5.7636,-5.7613,-5.7663,-5.7755,-5.7786,-5.7821,-5.7829,-5.7904,-5.7979,-5.7891,-5.7904,-5.7839,-5.7915,-5.8134,-5.7811,-5.7809,-5.7871,-5.8349,-5.8419,-5.8462,-5.8074,-5.808,-5.8085,-5.8349,0,-5.7918,-5.807,-5.7986,-5.8151,-5.821,-5.8077,-5.8157,-5.8152,-5.8116,-5.8162,-5.8121,-5.8176,-5.8056,-5.8063,-5.8132,-5.8093,-5.8229,-5.8073,-5.8143,-5.8147,-5.8148,-5.8506,-5.8581,-5.8831,-5.8381,-5.8387,-5.8391,0,-5.8249,-5.8268,-5.8438,-5.8402,-5.8424,-5.8497,-5.8518,-5.8564,-5.8556,-5.8524,-5.8539,-5.8454,-5.8543,-5.8402,-5.8523,-5.8419,-5.8443,-5.8428,-5.8435,-5.8438,-5.8283,-5.8518,-5.8908,-5.8946,-5.8442,-5.8438,-5.8435,0,-5.8532,-5.86,-5.871,-5.8714,-5.8675,-5.873,-5.8717,-5.8701,-5.8724,-5.8744,-5.8758,-5.8789,-5.8805,-5.8831,-5.8758,-5.8662,-5.8889,-5.8742,-5.8865,-5.8867,-5.8918,-5.8916,-5.9317,-5.8935,-5.8935,-5.8934,-5.8933,0,-5.8837,-5.8947,-5.8836,-5.8904,-5.9022,-5.8925,-5.9046,-5.9018,-5.9005,-5.9066,-5.8953,-5.9013,-5.8912,-5.8962,-5.8906,-5.9014,-5.9023,-5.9,-5.8983,-5.9009,-5.9012,-5.9023,-5.9004,-5.8944,-5.8942,-5.894,-5.8938,0,-5.9173,-5.9104,-5.9214,-5.9168,-5.9158,-5.9248,-5.9208,-5.9269,-5.9224,-5.9303,-5.9315,-5.9246,-5.9299,-5.9228,-5.9275,-5.9236,-5.9384,-5.9342,-5.9386,-5.9374,-5.95,-5.9489,-5.9922,-5.9973,-5.956,-5.9564,-5.9568,0,-5.9372,-5.9453,-5.9414,-5.9445,-5.9438,-5.9491,-5.9513,-5.9421,-5.945,-5.9446,-5.9508,-5.9551,-5.958,-5.9672,-5.9626,-5.9661,-5.9618,-5.9768,-5.9623,-5.9646,-5.9619,-5.9615,-5.9622,-5.9797,-5.9802,-5.9806,-5.981,0,-5.9733,-5.9694,-5.973,-5.9755,-5.9785,-5.98,-5.9807,-5.984,-5.9744,-5.9782,-5.9833,-5.9856,-5.9902,-5.9947,-5.9969,-5.9956,-5.9868,-5.9855,-5.9885,-5.9913,-5.9934,-5.9923,-5.9466,-5.9846,-5.9842,-5.984,-5.9838,-5.9836,-6.0006,-6.007,-6.0053,-6.0096,-6.0092,-6.0101,-6.0155,-6.0116,-6.0157,-6.0185,-6.0129,-6.0195,-6.0184,-6.0205,-6.0202,-6.0253,-6.0188,-6.0232,-6.0243,-6.0255,-6.0274,-5.9927,-6.0257,-6.0256,-6.0255,-6.0254,-6.0253,0,-6.036,-6.0341,-6.0383,-6.0395,-6.043,-6.0341,-6.0344,-6.0379,-6.0438,-6.0434,-6.0465,-6.0524,-6.0566,-6.0523,-6.0557,-6.0606,-6.0566,-6.0618,-6.0613,-6.0611,-6.0331,-6.0301,-6.0649,-6.0649,-6.0649,-6.0649,-6.0649,-6.0649,-6.0548,-6.0652,-6.0611,-6.0712,-6.0692,-6.0754,-6.0763,-6.0771,-6.0767,-6.0837,-6.0871,-6.0842,-6.0823,-6.0854,-6.0889,-6.0876,-6.0893,-6.0959,-6.0932,-6.067,-6.0631,-6.0594,-6.0565,-6.0964,-6.0965,-6.1208,-6.121,-6.1212]},{"header":{"parameterUnit":"m.s-1","parameterCategory":1,"la1":30.2991,"la2":30.254,"lo1":-89.0895,"lo2":-89.0444,"dy":0.0017,"dx":0.0017,"nx":28,"ny":28,"refTime":"2025-01-19T09:00:00:Z","depth":0,"parameterNumber":3,"parameterNumberName":"V-component_of_WINDS"},"data":[0,0,0,0,0,0,0,0,0,0,0,0,0,0,0,0,0,0,0,0,0,0,0,0,0,0,0,0,0,0,0,0,0,0,0,0,0,0,0,0,0,0,0,0,0,0,0,0,0,0,0,0,0,0,0,0,0,0,-5.0253,-5.0254,0,-5.0316,-5.0317,-5.0318,-5.0262,-5.026,-5.0258,-5.0256,-5.0317,-5.0321,-5.0324,0,0,0,0,0,0,0,0,0,0,0,0,0,-5.008,-5.0083,-5.0253,-5.0254,-5.0255,-5.0316,-5.0317,-5.0318,-5.0263,-5.026,-5.0257,-5.0255,-5.0316,-5.032,-5.0325,0,0,0,0,0,0,0,0,0,0,0,0,0,-5.015,-5.0085,-5.0253,-5.0235,-5.0234,-5.0316,-5.0317,-5.0318,-5.0263,-5.026,-5.0256,-5.0253,-5.0314,-5.032,-5.0325,-5.0428,0,0,-5.0342,-5.0345,0,0,0,0,0,0,0,0,-5.0146,-5.0157,-5.0237,-5.0236,-5.0235,-5.0278,-5.0278,-5.0355,-5.0264,-5.0252,-5.0256,-5.0252,-5.0307,-5.0313,-5.0332,-5.0431,-5.0433,-5.0343,-5.0346,-5.0349,-5.035,0,0,0,0,0,0,0,-5.0142,-5.0154,-5.0278,-5.0238,-5.0237,-5.0222,-5.0228,-5.0293,-5.0297,-5.0253,-5.0249,-5.0257,-5.0305,-5.0327,-5.0333,-5.0434,-5.0343,-5.0348,-5.0351,-5.0353,-5.0618,-5.0622,0,0,0,0,0,0,-5.0139,-5.015,-5.0276,-5.028,-5.0182,-5.0228,-5.0235,-5.0268,-5.0297,-5.0298,-5.026,-5.0254,-5.0319,-5.0326,-5.0335,-5.0455,-5.0349,-5.0354,-5.0357,-5.0615,-5.0619,-5.0623,0,0,0,0,0,0,-5.0136,-5.0151,-5.0273,-5.0214,-5.0228,-5.0234,-5.0272,-5.0271,-5.0292,-5.0302,-5.0302,-5.0281,-5.0316,-5.0327,-5.0405,-5.0457,-5.0356,-5.0362,-5.0611,-5.0616,-5.0621,-5.0698,0,0,0,0,0,0,-5.0131,-5.015,-5.019,-5.0215,-5.0232,-5.0344,-5.0275,-5.0274,-5.0302,-5.0295,-5.0322,-5.0323,-5.0314,-5.0397,-5.0411,-5.0463,-5.0366,-5.0606,-5.0613,-5.062,-5.0691,-5.0706,-5.0718,0,0,0,0,0,-5.0125,-5.0209,-5.0193,-5.0208,-5.0283,-5.0347,-5.0357,-5.0346,-5.0306,-5.0346,-5.0352,-5.0322,-5.0449,-5.0405,-5.042,-5.0475,-5.0603,-5.0611,-5.0619,-5.0685,-5.0703,-5.0718,0,0,0,0,0,0,-5.0189,-5.0212,-5.0194,-5.0289,-5.0317,-5.0338,-5.0387,-5.0365,-5.0404,-5.0396,-5.038,-5.0386,-5.0468,-5.0479,-5.043,-5.0575,-5.0519,-5.0531,-5.0564,-5.0581,-5.0595,-5.059,-5.0371,0,0,0,0,0,-5.0215,-5.0267,-5.0283,-5.0366,-5.038,-5.0382,-5.041,-5.0399,-5.0426,-5.0438,-5.045,-5.0477,-5.0522,-5.0552,-5.0595,-5.0693,-5.0697,-5.0737,-5.0751,-5.0762,-5.0772,-5.0822,-5.084,-5.065,-5.065,-5.065,0,0,-5.0267,-5.0286,-5.032,-5.0379,-5.0399,-5.0452,-5.0392,-5.0451,-5.0489,-5.0446,-5.052,-5.053,-5.0559,-5.0647,-5.0686,-5.0659,-5.0825,-5.0773,-5.0782,-5.0785,-5.0833,-5.0851,-5.0867,-5.0656,-5.0655,-5.0654,0,0,-5.0389,-5.041,-5.048,-5.0501,-5.0533,-5.0533,-5.055,-5.0574,-5.058,-5.0654,-5.0623,-5.0667,-5.0747,-5.0768,-5.0789,-5.0919,-5.0892,-5.0933,-5.1004,-5.1053,-5.1068,-5.1081,-5.1125,-5.1142,-5.0943,-5.0943,-5.0944,0,-5.045,-5.053,-5.0518,-5.0579,-5.0605,-5.057,-5.0639,-5.066,-5.0704,-5.0722,-5.0691,-5.0789,-5.0806,-5.0897,-5.0929,-5.0948,-5.0965,-5.093,-5.1067,-5.108,-5.1092,-5.1134,-5.1151,-5.0948,-5.0948,-5.0947,-5.0947,0,-5.0602,-5.0658,-5.071,-5.0754,-5.0786,-5.0851,-5.0847,-5.0881,-5.0867,-5.087,-5.0945,-5.0965,-5.101,-5.1031,-5.1018,-5.112,-5.1102,-5.1069,-5.1013,-5.1115,-5.1154,-5.117,-5.0955,-5.0953,-5.0952,-5.0951,0,0,-5.0766,-5.0803,-5.0822,-5.0841,-5.0873,-5.0914,-5.0977,-5.1022,-5.105,-5.1081,-5.1131,-5.1199,-5.1169,-5.1193,-5.1182,-5.1226,-5.1325,-5.1188,-5.1188,-5.1211,-5.1436,-5.1459,-5.1478,-5.1308,-5.1311,-5.1313,-5.1433,0,-5.0889,-5.0999,-5.0989,-5.1093,-5.1142,-5.1109,-5.1163,-5.1188,-5.1192,-5.1234,-5.1238,-5.1285,-5.1243,-5.1257,-5.1299,-5.1304,-5.137,-5.1296,-5.1353,-5.1355,-5.1345,-5.1499,-5.1524,-5.1636,-5.1449,-5.1451,-5.1453,0,-5.1046,-5.1083,-5.1192,-5.1214,-5.1235,-5.1284,-5.1324,-5.1365,-5.1391,-5.1391,-5.1418,-5.1399,-5.146,-5.1404,-5.1486,-5.1436,-5.1459,-5.1465,-5.1469,-5.1472,-5.1409,-5.1505,-5.1672,-5.1688,-5.1477,-5.1475,-5.1474,0,-5.1153,-5.123,-5.1304,-5.1321,-5.1351,-5.1385,-5.1399,-5.1422,-5.1449,-5.1484,-5.1501,-5.1542,-5.1564,-5.1595,-5.1587,-5.1547,-5.1671,-5.1614,-5.1671,-5.1671,-5.1697,-5.1695,-5.1869,-5.1715,-5.1715,-5.1714,-5.1714,0,-5.1289,-5.1356,-5.1352,-5.1398,-5.1471,-5.146,-5.1532,-5.1541,-5.1562,-5.1607,-5.1581,-5.1624,-5.1612,-5.1654,-5.1648,-5.1716,-5.1727,-5.1727,-5.1724,-5.1729,-5.1728,-5.1742,-5.1733,-5.1719,-5.1718,-5.1717,-5.1716,0,-5.142,-5.1421,-5.1499,-5.152,-5.1527,-5.158,-5.1597,-5.1639,-5.1642,-5.1699,-5.1712,-5.1715,-5.1763,-5.1759,-5.1812,-5.1808,-5.1892,-5.1881,-5.1884,-5.188,-5.1937,-5.1931,-5.2123,-5.2147,-5.198,-5.1982,-5.1983,0,-5.1507,-5.1557,-5.1584,-5.1613,-5.1629,-5.1677,-5.1704,-5.1694,-5.1724,-5.1757,-5.1795,-5.184,-5.1876,-5.1954,-5.196,-5.2,-5.1989,-5.2054,-5.1995,-5.1997,-5.1987,-5.1984,-5.1988,-5.2065,-5.2067,-5.2068,-5.2069,0,-5.1659,-5.1657,-5.1698,-5.174,-5.1774,-5.1806,-5.1835,-5.186,-5.1852,-5.1887,-5.1936,-5.1964,-5.2018,-5.2063,-5.2101,-5.2113,-5.209,-5.2088,-5.2103,-5.2107,-5.2105,-5.2105,-5.1913,-5.2083,-5.2082,-5.2081,-5.208,-5.208,-5.1769,-5.1812,-5.1837,-5.1884,-5.1905,-5.1933,-5.1973,-5.198,-5.2021,-5.2066,-5.2057,-5.2112,-5.2135,-5.2184,-5.22,-5.2241,-5.2218,-5.224,-5.2245,-5.225,-5.2256,-5.21,-5.2248,-5.2248,-5.2248,-5.2247,-5.2247,0,-5.1919,-5.1933,-5.1977,-5.2018,-5.2054,-5.2031,-5.2061,-5.2092,-5.2141,-5.2166,-5.2202,-5.2257,-5.23,-5.231,-5.2351,-5.2382,-5.2372,-5.2393,-5.2389,-5.2392,-5.2276,-5.2258,-5.24,-5.24,-5.24,-5.24,-5.24,-5.24,-5.2001,-5.2071,-5.2072,-5.2152,-5.2166,-5.222,-5.2239,-5.2264,-5.2283,-5.2346,-5.2382,-5.2389,-5.2407,-5.2448,-5.2486,-5.2488,-5.2503,-5.2528,-5.2525,-5.2416,-5.2401,-5.2386,-5.2369,-5.2532,-5.2532,-5.2638,-5.2639,-5.264]}]]